sat.trackr.live / text

‹ back to catalog

GHGSAT-C12

NORAD 64529 · 2025-135B

PAYLOAD ACTIVE UNKNOWN

§ Identity

Operator
Country
CA
Launch date
2025-06-23
Launch site
AFWTR
Launch vehicle
Mass (kg)
RCS (m²)

External: N2YO · Heavens-Above · Gunter

§ Orbital elements

Epoch: 2026-09-21T20:29:29.203872Z

Period
94.69 min
Inclination
97.4824°
Eccentricity
0.0004748
Mean motion
15.20796988 rev/d
Perigee alt
500.2 km
Apogee alt
506.7 km
Semi-major
6,881.6 km
B*
1.0493e-4
RAAN
18.8841°
Arg perigee
178.0303°
Mean anomaly
182.0951°
Rev number
6,951

§ Raw data

GHGSAT-C121 64529U 25135B   26264.85381023  .00002243  00000+0  10493-3 0  99922 64529  97.4824  18.8841 0004748 178.0303 182.0951 15.20796988 69519

JSON: /api/v1/satellites/64529 · /tle

For live sub-satellite position, see the globe view (requires WebGL).

§ Visibility from observer

Set your observer location to see the next 7 days of passes ≥ 10°. The values pass through the URL so the page stays shareable.

No JS? Fill the form by hand. The geolocation button needs JavaScript.